User: anonymous   Login
Location: Cartignies
(50.0929°N, 3.8447°E)
Time: 13:46:54
(UTC+00:00)
Language:

Cosmos 2237 Rocket - Orbit

View from above orbital plane
View from above orbital plane
View from above satellite
View from above satellite

Ground track
Ground track

The orbit is defined by the following mean orbital elements,

1 22566U          26071.81904072 +.00000000 +00000-0 +10064-4 0 00006
2 22566  71.0079 208.6082 0012038 309.9663  50.0401 14.15309352    06
Epoch (UTC): 12 March 2026 19:39:25
Eccentricity: 0.0012038
inclination: 71.0079°
perigee height: 833 km
apogee height: 850 km
right ascension of ascending node: 208.6082°
argument of perigee: 309.9663°
revolutions per day: 14.15309352
mean anomaly at epoch: 50.0401°

The dashed part of the orbit path shows where the satellite is in the earth's shadow,  

DLR